#timestamp,LO_Frequency,Hit 
1501178415.6,286047011.5,N
1501178435.4,286047017.2,N
1501178455.3,286047018.8,N
1501178475.1,286047017.5,N
1501178476.0,286047017.5,N
1501178495.8,286047019.2,N
1501178515.7,286047021.3,N
1501178535.5,286047017.4,N
1501178555.3,286047019.2,N
1501178575.1,286047021.9,N
1501178595.9,286047019.5,N
1501178615.7,286047022.7,N
1501178635.5,286047022.7,N
1501178655.4,286047024.7,Y
1501178675.2,286047019.7,N
1501178695.0,286047018.5,N
1501178695.9,286047018.5,N
1501178715.8,286047017.7,N
1501178735.6,286047020.0,N
1501178755.4,286047023.6,N
1501178775.3,286047023.1,N
1501178795.1,286047020.8,N
1501178796.0,286047020.8,N
1501178815.8,286047020.9,N
1501178835.7,286047019.0,N
1501178855.5,286047018.2,N
1501178875.3,286047018.2,N
1501178895.1,286047019.0,N
1501178915.9,286047020.7,N
1501178935.7,286047021.3,N
1501178955.5,286047020.2,N
1501178975.4,286047019.9,N
1501178995.2,286047022.0,N
1501179015.0,286047021.3,N
1501179015.9,286047021.3,N
1501179035.8,286047019.5,N
1501179055.6,286047017.3,N
1501179075.4,286047017.8,N
1501179095.3,286047022.0,N
1501179115.1,286047020.1,N
1501179116.0,286047020.1,N
1501179135.8,286047022.0,N
1501179155.6,286047019.6,N
1501179175.5,286047017.0,N
1501179195.3,286047018.0,N
1501179215.1,286047019.4,N
1501179235.9,286047018.1,N
1501179255.7,286047020.4,N
1501179275.5,286047020.3,N
1501179295.4,286047020.4,N
1501179315.2,286047017.0,N
1501179335.0,286047014.1,N
1501179335.9,286047014.1,N
1501179355.8,286047019.7,N
1501179375.6,286047020.8,N
1501179395.4,286047023.3,N
1501179415.2,286047023.1,N
1501179435.1,286047024.9,N
1501179436.0,286047024.9,N
1501179455.8,286047020.4,N
1501179475.6,286047019.9,N
1501179495.5,286047020.1,N
1501179515.3,286047020.7,N
1501179535.1,286047022.3,N
1501179555.9,286047024.4,N
1501179575.7,286047022.9,N
1501179595.5,286047018.9,N
1501179615.4,286047020.7,N
1501179635.2,286047020.0,N
1501179655.0,286047017.7,N
1501179655.9,286047017.7,N
1501179675.8,286047018.6,N
1501179695.6,286047014.2,N
1501179715.4,286047017.2,N
1501179735.2,286047015.6,N
1501179755.1,286047013.1,N
1501179756.0,286047013.1,N
1501179775.8,286047012.6,N
1501179795.6,286047017.2,N
1501179815.5,286047013.6,N
1501179835.3,286047011.0,N
1501179855.1,286047013.4,N
1501179875.9,286047015.4,N
1501179895.7,286047017.9,N
1501179915.5,286047016.0,N
1501179935.4,286047014.4,N
1501179955.2,286047015.5,N
1501179975.0,286047012.6,N
1501179975.9,286047012.6,N
1501179995.8,286047015.5,N
1501180015.6,286047016.9,N
1501180035.4,286047015.2,N
1501180055.2,286047014.5,N
1501180075.1,286047015.6,N
1501180076.0,286047015.6,N
1501180095.8,286047017.9,N
1501180115.6,286047014.6,N
1501180135.5,286047014.5,N
1501180155.3,286047016.9,N
1501180175.1,286047017.2,N
1501180195.9,286047018.1,N
1501180215.7,286047016.3,N
1501180235.5,286047015.4,N
1501180255.4,286047016.8,N
1501180275.2,286047014.4,N
1501180295.0,286047015.1,N
1501180295.9,286047015.1,N
1501180315.7,286047013.6,N
1501180335.6,286047011.2,N
1501180355.4,286047014.0,N
1501180375.2,286047015.5,N
1501180395.1,286047014.8,N
1501180396.0,286047014.8,N
1501180415.8,286047014.2,N
1501180435.6,286047015.9,N
1501180455.5,286047014.8,N
1501180475.3,286047019.4,N
1501180495.1,286047021.9,N
1501180515.9,286047019.4,N
1501180535.7,286047020.0,N
1501180555.5,286047018.5,N
1501180575.3,286047015.9,N
1501180595.2,286047018.5,N
1501180615.0,286047022.0,N
1501180615.9,286047022.0,N
1501180635.7,286047020.5,N
1501180655.6,286047025.2,N
1501180675.4,286047020.6,N
1501180695.2,286047020.8,N
1501180715.1,286047020.7,N
1501180716.0,286047020.7,N
1501180735.8,286047023.1,N
1501180755.6,286047021.2,N
1501180775.5,286047021.0,N
1501180795.3,286047025.1,N
1501180815.1,286047021.0,N
1501180835.8,286047023.1,N
1501180855.7,286047024.8,N
1501180875.5,286047023.6,N
1501180895.3,286047023.6,N
1501180915.2,286047020.8,N
1501180935.9,286047021.3,N
1501180955.7,286047021.9,N
1501180975.6,286047017.7,N
1501180995.4,286047018.7,N
1501181015.2,286047016.2,N
1501181035.0,286047017.8,N
1501181036.0,286047017.8,N
1501181055.8,286047020.1,N
1501181075.6,286047018.2,N
1501181095.4,286047017.3,N
1501181115.3,286047021.9,N
1501181135.1,286047019.2,N
1501181155.8,286047020.6,N
1501181175.7,286047023.2,N
1501181195.5,286047024.7,N
1501181215.3,286047024.6,N
1501181235.2,286047023.7,N
1501181255.9,286047022.2,N
1501181275.7,286047022.5,N
1501181295.6,286047020.8,N
1501181315.4,286047024.8,Y
1501181335.2,286047009.9,N
1501181355.1,286047009.9,N
1501181356.0,286047009.9,N
1501181375.8,286047009.1,N
1501181395.6,286047007.7,N
1501181415.4,286047008.9,N
1501181435.3,286047010.2,N
1501181455.1,286047009.9,N
1501181475.8,286047013.7,N
1501181495.7,286047015.0,N
1501181515.5,286047014.3,N
1501181535.3,286047016.1,N
1501181555.2,286047015.1,N
1501181575.9,286047015.2,N
1501181595.7,286047015.9,N
1501181615.6,286047014.7,N
1501181635.4,286047016.8,N
1501181655.2,286047016.8,N
1501181675.0,286047016.9,N
1501181675.9,286047016.9,N
1501181695.8,286047015.9,N
1501181715.6,286047016.5,N
1501181735.4,286047014.2,N
1501181755.3,286047012.5,N
1501181775.1,286047013.5,N
1501181795.8,286047016.8,N
1501181815.7,286047016.8,N
1501181835.5,286047014.3,N
1501181855.3,286047014.7,N
1501181875.2,286047015.4,N
1501181895.9,286047017.6,N
1501181915.7,286047018.9,N
1501181935.5,286047018.2,N
1501181955.4,286047017.8,N
1501181975.2,286047016.2,N
1501181995.0,286047016.5,N
1501181995.9,286047016.5,N
